アトラス彗星

C/2017 D3 ( ATLAS )

English version
Home page
Updated on August 28, 2018

---------------------------------------------------------------------

・ プロフィール

発見日 2017年2月23日
発見光度 18.0等
発見者 Asteroid Terrestrial-impact Last Alert System (ATLAS) Team

・ 写真集

・ 軌道要素

Epoch 2017 May 7.0 TT = JDT 2457880.5
T 2017 Apr. 26.87245 TT                                 MPCW
q   4.9713490            (2000.0)            P               Q
z  -0.0004243      Peri.  340.77285     -0.91589237     -0.39039764
 +/-0.0000013      Node   186.60251     -0.16806099     +0.16152960
e   1.0021095      Incl.  125.64431     -0.36454996     +0.90636520
From 372 observations 2017 Feb. 10-2018 Mar. 26, mean residual 0".5.

・ 光度変化

        m1 = 3.0 + 5 logΔ + 15.0 log r(t - 200)

---------------------------------------------------------------------

軌道要素はM.P.E.C. 2018-F152に掲載されたものです。
光度グラフはComet for Windowsで作成したものです。

---------------------------------------------------------------------

Copyright(C) Seiichi Yoshida (comet@aerith.net). All rights reserved.